| time (UTC) | temp C | wind direction | speed KPH | gust KPH | rain 1hr cm | rain 24hr cm | rain mn cm | humidity % | barometer mb |
| 20260507060058 | 8 | 0 | 1.6 | 8.0 | 0.00 | 0.00 | 0.00 | 88 | 1016.3 |
| 20260507054555 | 8 | 0 | 0.0 | 0.0 | 0.00 | 0.00 | 0.00 | 88 | 1016.1 |
| 20260507053059 | 7 | 0 | 0.0 | 0.0 | 0.00 | 0.00 | 0.00 | 88 | 1016.1 |
| 20260507051607 | 7 | 0 | 0.0 | 0.0 | 0.00 | 0.00 | 0.00 | 88 | 1016.2 |
| 20260507050112 | 7 | 0 | 0.0 | 0.0 | 0.00 | 0.00 | 0.00 | 88 | 1016.1 |
| 20260507044559 | 7 | 0 | 0.0 | 4.8 | 0.00 | 0.00 | 0.00 | 88 | 1016.0 |
| 20260507043057 | 7 | 0 | 0.0 | 3.2 | 0.00 | 0.00 | 0.00 | 88 | 1015.9 |
| 20260507041557 | 7 | 0 | 1.6 | 3.2 | 0.00 | 0.00 | 0.00 | 87 | 1015.9 |
| 20260507040106 | 7 | 23 | 0.0 | 4.8 | 0.00 | 0.00 | 0.00 | 87 | 1015.9 |
| 20260507034607 | 7 | 24 | 1.6 | 3.2 | 0.00 | 0.00 | 0.00 | 87 | 1015.8 |
| 20260507033100 | 8 | 24 | 1.6 | 4.8 | 0.00 | 0.00 | 0.00 | 87 | 1015.6 |
| 20260507031556 | 8 | 26 | 1.6 | 4.8 | 0.00 | 0.00 | 0.00 | 87 | 1015.6 |
| 20260507030056 | 8 | 31 | 1.6 | 6.4 | 0.00 | 0.00 | 0.00 | 87 | 1015.6 |
| 20260507024558 | 8 | 21 | 1.6 | 4.8 | 0.00 | 0.00 | 0.00 | 87 | 1015.6 |
| 20260507023057 | 8 | 20 | 1.6 | 4.8 | 0.00 | 0.00 | 0.00 | 87 | 1015.5 |
| 20260507021611 | 8 | 24 | 3.2 | 6.4 | 0.00 | 0.00 | 0.00 | 86 | 1015.4 |
| 20260507020059 | 8 | 30 | 1.6 | 4.8 | 0.00 | 0.00 | 0.00 | 86 | 1015.3 |
| 20260507014600 | 8 | 12 | 0.0 | 6.4 | 0.00 | 0.00 | 0.00 | 86 | 1015.2 |
| 20260507013057 | 8 | 360 | 1.6 | 6.4 | 0.00 | 0.00 | 0.00 | 86 | 1015.2 |
| 20260507011558 | 8 | 17 | 1.6 | 6.4 | 0.00 | 0.00 | 0.00 | 86 | 1015.3 |
| 20260507004557 | 8 | 12 | 1.6 | 6.4 | 0.00 | 0.00 | 0.00 | 86 | 1015.3 |
| 20260507003104 | 8 | 15 | 1.6 | 6.4 | 0.00 | 0.00 | 0.00 | 86 | 1015.3 |
| 20260507001606 | 8 | 20 | 3.2 | 4.8 | 0.00 | 0.00 | 0.00 | 86 | 1015.2 |
| 20260507000101 | 8 | 11 | 1.6 | 6.4 | 0.00 | 0.00 | 0.00 | 86 | 1015.3 |
| 20260506234626 | 8 | 11 | 1.6 | 4.8 | 0.00 | 0.00 | 0.00 | 85 | 1015.2 |
| 20260506233056 | 8 | 23 | 1.6 | 6.4 | 0.00 | 0.00 | 0.00 | 85 | 1015.3 |
| 20260506231557 | 8 | 58 | 0.0 | 6.4 | 0.00 | 0.00 | 0.00 | 85 | 1015.1 |
| 20260506230059 | 8 | 0 | 0.0 | 0.0 | 0.00 | 0.00 | 0.00 | 85 | 1015.3 |
| 20260506224556 | 8 | 0 | 0.0 | 0.0 | 0.00 | 0.00 | 0.00 | 84 | 1015.3 |
| 20260506223101 | 8 | 28 | 0.0 | 4.8 | 0.00 | 0.00 | 0.00 | 84 | 1015.2 |
| 20260506221557 | 8 | 30 | 0.0 | 4.8 | 0.00 | 0.00 | 0.00 | 84 | 1015.2 |
| 20260506220056 | 8 | 30 | 0.0 | 3.2 | 0.00 | 0.00 | 0.00 | 84 | 1015.1 |
| 20260506214557 | 9 | 28 | 0.0 | 4.8 | 0.00 | 0.00 | 0.00 | 85 | 1015.1 |
| 20260506213055 | 9 | 0 | 0.0 | 6.4 | 0.00 | 0.00 | 0.00 | 84 | 1015.0 |
| 20260506211558 | 9 | 23 | 0.0 | 4.8 | 0.00 | 0.00 | 0.00 | 85 | 1015.0 |
| 20260506210056 | 9 | 0 | 0.0 | 0.0 | 0.00 | 0.00 | 0.00 | 85 | 1014.8 |
| 20260506204603 | 9 | 0 | 0.0 | 4.8 | 0.00 | 0.00 | 0.00 | 85 | 1014.9 |
| 20260506203058 | 9 | 0 | 1.6 | 4.8 | 0.00 | 0.00 | 0.00 | 84 | 1014.7 |
| 20260506201558 | 9 | 32 | 1.6 | 4.8 | 0.00 | 0.00 | 0.00 | 84 | 1014.6 |
| 20260506200111 | 9 | 34 | 0.0 | 6.4 | 0.00 | 0.00 | 0.00 | 84 | 1014.4 |
| 20260506194614 | 9 | 22 | 1.6 | 6.4 | 0.00 | 0.00 | 0.00 | 84 | 1014.3 |
| 20260506193057 | 10 | 12 | 1.6 | 6.4 | 0.00 | 0.00 | 0.00 | 83 | 1014.2 |
| 20260506191556 | 10 | 0 | 3.2 | 9.7 | 0.00 | 0.00 | 0.00 | 82 | 1014.0 |
| 20260506190100 | 10 | 24 | 3.2 | 8.0 | 0.00 | 0.00 | 0.00 | 82 | 1014.0 |
| 20260506184605 | 10 | 340 | 3.2 | 12.9 | 0.00 | 0.00 | 0.00 | 80 | 1013.8 |
| 20260506183103 | 10 | 5 | 4.8 | 16.1 | 0.00 | 0.00 | 0.00 | 79 | 1013.7 |
| 20260506181602 | 11 | 42 | 6.4 | 17.7 | 0.00 | 0.00 | 0.00 | 77 | 1013.6 |
| 20260506180057 | 11 | 11 | 3.2 | 16.1 | 0.00 | 0.00 | 0.00 | 76 | 1013.5 |
| 20260506174602 | 11 | 40 | 6.4 | 16.1 | 0.00 | 0.00 | 0.00 | 74 | 1013.4 |
| 20260506173111 | 12 | 34 | 9.7 | 17.7 | 0.00 | 0.00 | 0.00 | 73 | 1013.2 |
| 20260506171600 | 13 | 41 | 6.4 | 14.5 | 0.00 | 0.00 | 0.00 | 71 | 1013.2 |
| 20260506170056 | 13 | 0 | 1.6 | 14.5 | 0.00 | 0.00 | 0.00 | 67 | 1012.9 |
| 20260506164558 | 13 | 14 | 3.2 | 11.3 | 0.00 | 0.00 | 0.00 | 67 | 1013.0 |
| 20260506163057 | 13 | 11 | 3.2 | 14.5 | 0.00 | 0.00 | 0.00 | 67 | 1013.0 |
| 20260506161605 | 13 | 343 | 8.0 | 20.9 | 0.00 | 0.00 | 0.00 | 64 | 1013.0 |
| 20260506160058 | 14 | 59 | 8.0 | 19.3 | 0.00 | 0.00 | 0.00 | 65 | 1013.0 |
| 20260506154558 | 15 | 355 | 8.0 | 16.1 | 0.00 | 0.00 | 0.00 | 62 | 1012.9 |
| 20260506153056 | 15 | 347 | 9.7 | 17.7 | 0.00 | 0.00 | 0.00 | 62 | 1012.9 |
| 20260506151608 | 16 | 33 | 8.0 | 17.7 | 0.00 | 0.00 | 0.00 | 59 | 1012.9 |
| 20260506150056 | 16 | 0 | 6.4 | 24.1 | 0.00 | 0.00 | 0.00 | 60 | 1012.8 |
| 20260506144603 | 16 | 19 | 11.3 | 25.7 | 0.00 | 0.00 | 0.00 | 57 | 1012.9 |
| 20260506143100 | 16 | 355 | 11.3 | 24.1 | 0.00 | 0.00 | 0.00 | 57 | 1012.8 |
| 20260506141559 | 16 | 355 | 9.7 | 22.5 | 0.00 | 0.00 | 0.00 | 59 | 1012.8 |
| 20260506140108 | 15 | 355 | 9.7 | 20.9 | 0.00 | 0.00 | 0.00 | 61 | 1012.9 |
| 20260506134557 | 15 | 62 | 8.0 | 20.9 | 0.00 | 0.00 | 0.00 | 57 | 1013.0 |
| 20260506133100 | 15 | 14 | 11.3 | 22.5 | 0.00 | 0.00 | 0.00 | 58 | 1012.9 |
| 20260506131557 | 14 | 355 | 8.0 | 17.7 | 0.00 | 0.00 | 0.00 | 59 | 1012.9 |
| 20260506130120 | 14 | 30 | 8.0 | 25.7 | 0.00 | 0.00 | 0.00 | 60 | 1013.0 |
| 20260506124555 | 15 | 347 | 4.8 | 17.7 | 0.00 | 0.00 | 0.00 | 57 | 1012.9 |
| 20260506123054 | 15 | 355 | 9.7 | 20.9 | 0.00 | 0.00 | 0.00 | 58 | 1012.8 |
| 20260506121557 | 15 | 269 | 8.0 | 27.4 | 0.00 | 0.00 | 0.00 | 60 | 1012.7 |
| 20260506120100 | 15 | 355 | 8.0 | 27.4 | 0.00 | 0.00 | 0.00 | 61 | 1012.8 |
| 20260506114556 | 13 | 355 | 6.4 | 25.7 | 0.00 | 0.00 | 0.00 | 61 | 1012.8 |
| 20260506113104 | 13 | 22 | 9.7 | 24.1 | 0.00 | 0.00 | 0.00 | 61 | 1012.8 |
| 20260506111557 | 13 | 348 | 11.3 | 24.1 | 0.00 | 0.00 | 0.00 | 61 | 1012.7 |
| 20260506110103 | 13 | 339 | 9.7 | 25.7 | 0.00 | 0.00 | 0.00 | 63 | 1012.8 |
| 20260506104616 | 13 | 5 | 9.7 | 24.1 | 0.00 | 0.00 | 0.00 | 64 | 1012.7 |
| 20260506103057 | 13 | 313 | 12.9 | 24.1 | 0.00 | 0.00 | 0.00 | 65 | 1012.8 |
| 20260506101603 | 12 | 328 | 11.3 | 27.4 | 0.00 | 0.00 | 0.00 | 68 | 1012.6 |
| 20260506100055 | 12 | 10 | 11.3 | 25.7 | 0.00 | 0.00 | 0.00 | 68 | 1012.7 |
| 20260506094559 | 12 | 30 | 11.3 | 27.4 | 0.00 | 0.00 | 0.00 | 69 | 1012.8 |
| 20260506093104 | 11 | 347 | 12.9 | 24.1 | 0.00 | 0.00 | 0.00 | 72 | 1012.7 |
| 20260506091554 | 11 | 315 | 11.3 | 27.4 | 0.00 | 0.00 | 0.00 | 72 | 1012.8 |
| 20260506084557 | 12 | 322 | 8.0 | 20.9 | 0.00 | 0.00 | 0.00 | 72 | 1012.5 |
| 20260506083056 | 11 | 313 | 9.7 | 25.7 | 0.00 | 0.00 | 0.00 | 72 | 1012.4 |
| 20260506081556 | 11 | 355 | 6.4 | 20.9 | 0.00 | 0.00 | 0.00 | 74 | 1012.3 |
| 20260506073104 | 9 | 10 | 6.4 | 20.9 | 0.00 | 0.00 | 0.00 | 79 | 1012.4 |
| 20260506071610 | 8 | 244 | 8.0 | 20.9 | 0.00 | 0.00 | 0.00 | 80 | 1012.3 |
| 20260506070103 | 8 | 355 | 6.4 | 16.1 | 0.00 | 0.00 | 0.00 | 82 | 1012.2 |
| 20260506061557 | 7 | 360 | 4.8 | 19.3 | 0.00 | 0.00 | 0.00 | 85 | 1012.3 |